Terminal Aerodrome Forecast
Issued by NWS Raleigh/Durham, NC

Home | Current Version | Previous Version | Text Only | Print | Product List | Glossary On
Versions: 1 2 3 4 5 6 7 8 9 10 11 12 13 14 15 16 17 18 19 20 21 22 23 24 25 26 27 28 29 30 31 32 33 34 35 36 37 38 39 40 41 42 43 44 45 46 47 48 49 50
000
FTUS42 KRAH 230921 AAB
TAFRDU
TAF AMD
KRDU 230921Z 2309/2406 VRB03KT P6SM SCT040 BKN120
      TEMPO 2309/2311 5SM -SHRA BR BKN035
     FM231500 07005KT P6SM VCSH SCT040 BKN250 PROB30 2318/2324 2SM
      TSRA BKN025CB=

USA.gov is the U.S. government's official web portal to all federal, state and local government web resources and services.